ASTRA 2E

Last updated on Thu Aug 13 2026 00:02:59 GMT+0000 (Coordinated Universal Time)

1 39285U 13056A 26224.50632763 .00000133 00000+0 00000+0 0 9995 2 39285 0.1031 297.1858 0002793 217.5643 17.0157 1.00277318 46980
UTC large
Height (km)
Speed (km/s)
/
Latitude / Longitude
Inclination (degrees)
Orbital Period (minutes)
Azimuth
Elevation
Range (km)
Doppler Factor

Next 0 passes for location: London (51.5072 / 0.1276)

No passes found over London.
ASTRA 2E